This demonstration page uses our WeatherBlox Daily Observations layout. Learn more.

40.92945, -100.16068

Hourly Observations for June 23, 2018

Temp ( °F °C ) Dew Point ( °F °C ) Humidity (%) Winds ( mph kmh ) Pressure ( in mb ) Visibility ( mi km ) Precip ( " mm )
12:15 am 00:15 Cloudy 65 18.5 62 16.7 89 89 Calm 29.85 1011 7 11.26538 0 0
12:35 am 00:35 Cloudy 65 18.1 62 16.6 91 91 SE 5 7 29.85 1011 7 11.26538 0 0
12:55 am 00:55 Cloudy with Nearby Thunderstorms 64 17.9 62 16.5 92 92 SSW 5 7 29.85 1011 7 11.26538 0 0
1:15 am 01:15 Partly Cloudy with Mist and Fog 63 17.3 61 16.2 93 93 SSE 6 9 29.8 1009 4 6.43736 0 0
1:35 am 01:35 Clear with Nearby Thunderstorms 62 16.7 60 15.8 94 94 SSE 6 9 29.77 1008 3 4.82802 0 0
1:55 am 01:55 Clear with Mist and Fog 63 17 61 16.1 94 94 ESE 7 11 29.71 1006 3 4.82802 0 0
2:15 am 02:15 Clear with Mist and Fog 63 17.2 61 16.3 94 94 SE 7 11 29.71 1006 4 6.43736 0 0
2:35 am 02:35 Partly Cloudy with Mist and Fog 62 16.9 61 15.9 94 94 SSW 5 7 29.74 1007 4 6.43736 0 0
2:55 am 02:55 Clear with Mist and Fog 62 16.4 60 15.5 94 94 WSW 3 6 29.74 1007 4 6.43736 0 0
3:15 am 03:15 Clear 62 16.5 59 15.1 92 92 W 5 7 29.74 1007 10 16.0934 0 0
3:35 am 03:35 Clear 61 16.2 58 14.6 90 90 SW 5 7 29.77 1008 10 16.0934 0 0
3:55 am 03:55 Clear 62 16.5 58 14.4 87 87 SW 5 7 29.77 1008 10 16.0934 0 0
4:15 am 04:15 Clear 61 16.2 57 14 87 87 WSW 3 6 29.77 1008 10 16.0934 0 0
4:35 am 04:35 Clear 61 16.2 57 13.7 85 85 WSW 3 6 29.77 1008 10 16.0934 0 0
4:55 am 04:55 Clear 60 15.8 56 13.6 87 87 W 6 9 29.77 1008 10 16.0934 0 0
5:15 am 05:15 Clear 60 15.7 56 13.5 87 87 WSW 5 7 29.77 1008 10 16.0934 0 0
5:35 am 05:35 Clear 61 15.9 56 13.5 86 86 WSW 7 11 29.77 1008 10 16.0934 0 0
5:55 am 05:55 Clear 60 15.6 56 13.3 86 86 WSW 5 7 29.77 1008 10 16.0934 0 0
6:15 am 06:15 Sunny 59 15.2 56 13.1 87 87 W 5 7 29.77 1008 10 16.0934 0 0
6:35 am 06:35 Sunny 59 14.9 56 13.1 89 89 W 5 7 29.77 1008 10 16.0934 0 0
6:55 am 06:55 Sunny 59 15.2 56 13.5 90 90 WSW 3 6 29.77 1008 10 16.0934 0 0
7:15 am 07:15 Sunny 59 14.9 56 13.6 92 92 Calm 29.77 1008 10 16.0934 0 0
7:35 am 07:35 Sunny 60 15.8 57 14 89 89 WSW 3 6 29.77 1008 10 16.0934 0 0
7:55 am 07:55 Sunny 62 16.8 58 14.5 86 86 SW 3 6 29.77 1008 10 16.0934 0 0
8:15 am 08:15 Sunny 65 18.1 59 15 82 82 Calm 29.74 1007 10 16.0934 0 0
8:35 am 08:35 Sunny 67 19.5 59 14.9 75 75 WSW 6 9 29.74 1007 10 16.0934 0 0
8:55 am 08:55 Sunny 68 20 58 14.2 69 69 W 7 11 29.74 1007 10 16.0934 0 0
9:15 am 09:15 Sunny 69 20.6 58 14.2 67 67 W 7 11 29.77 1008 10 16.0934 0 0
9:35 am 09:35 Sunny 70 21.1 59 14.8 67 67 W 5 7 29.74 1007 10 16.0934 0 0
9:55 am 09:55 Sunny 72 22 58 14.7 63 63 WNW 6 9 29.71 1006 10 16.0934 0 0
10:15 am 10:15 Sunny 74 23.1 58 14.6 59 59 NW 9 15 29.71 1006 10 16.0934 0 0
10:35 am 10:35 Sunny 73 22.9 58 14.7 60 60 WNW 6 9 29.71 1006 10 16.0934 0 0
10:55 am 10:55 Sunny 75 23.7 59 14.8 58 58 WNW 7 11 29.71 1006 10 16.0934 0 0
11:15 am 11:15 Sunny 77 24.9 59 15.1 55 55 W 6 9 29.71 1006 10 16.0934 0 0
11:35 am 11:35 Sunny 77 25.2 58 14.6 52 52 WNW 7 11 29.68 1005 10 16.0934 0 0
11:55 am 11:55 Sunny 80 26.4 58 14.6 48 48 WNW 7 11 29.68 1005 10 16.0934 0 0
12:15 pm 12:15 Sunny 80 26.8 59 15 48 48 W 9 15 29.68 1005 10 16.0934 0 0
12:35 pm 12:35 Sunny 81 27.2 58 14.6 46 46 SW 5 7 29.68 1005 10 16.0934 0 0
12:55 pm 12:55 Sunny 83 28.1 59 14.9 45 45 W 9 15 29.68 1005 10 16.0934 0 0
1:15 pm 13:15 Sunny 84 28.8 58 14.4 41 41 WNW 8 13 29.62 1003 10 16.0934 0 0
1:35 pm 13:35 Sunny 84 29 57 13.8 39 39 WSW 9 15 29.62 1003 10 16.0934 0 0
1:55 pm 13:55 Sunny 85 29.3 56 13.4 38 38 WNW 7 11 29.62 1003 10 16.0934 0 0
2:15 pm 14:15 Sunny 85 29.2 55 12.7 36 36 W 7 11 29.62 1003 10 16.0934 0 0
2:35 pm 14:35 Sunny 86 30.2 55 13 35 35 WNW 7 11 29.62 1003 10 16.0934 0 0
2:55 pm 14:55 Sunny 86 30.2 55 12.7 34 34 W 7 11 29.62 1003 10 16.0934 0 0
3:15 pm 15:15 Sunny 87 30.4 54 12 32 32 WSW 6 9 29.59 1002 10 16.0934 0 0
3:35 pm 15:35 Sunny 87 30.5 54 12.3 33 33 WSW 6 9 29.59 1002 10 16.0934 0 0
3:55 pm 15:55 Partly Cloudy 87 30.8 55 12.9 33 33 WSW 6 9 29.59 1002 10 16.0934 0 0
4:15 pm 16:15 Partly Cloudy 88 30.9 54 12.3 32 32 WSW 6 9 29.59 1002 10 16.0934 0 0
4:35 pm 16:35 Partly Cloudy 88 31 55 12.8 33 33 SW 12 19 29.59 1002 10 16.0934 0 0
4:55 pm 16:55 Sunny 88 31 55 12.9 33 33 SSW 6 9 29.59 1002 10 16.0934 0 0
5:15 pm 17:15 Partly Cloudy 86 30.1 56 13.1 35 35 SW 5 7 29.59 1002 10 16.0934 0 0
5:35 pm 17:35 Partly Cloudy 88 31.1 54 12.1 31 31 SSW 3 6 29.56 1001 10 16.0934 0 0
5:55 pm 17:55 Partly Cloudy 88 31 55 12.9 33 33 SW 8 13 29.56 1001 10 16.0934 0 0
6:15 pm 18:15 Mostly Cloudy 86 29.8 58 14.6 40 40 SSW 7 11 29.56 1001 10 16.0934 0 0
6:35 pm 18:35 Partly Cloudy 87 30.6 57 13.7 36 36 SW 5 7 29.56 1001 10 16.0934 0 0
6:55 pm 18:55 Partly Cloudy 86 29.9 59 14.8 40 40 SSW 5 7 29.56 1001 10 16.0934 0 0
7:15 pm 19:15 Partly Cloudy 87 30.5 55 12.9 34 34 S 5 7 29.56 1001 10 16.0934 0 0
7:35 pm 19:35 Partly Cloudy 85 29.7 60 15.6 42 42 S 6 9 29.56 1001 10 16.0934 0 0
7:55 pm 19:55 Sunny 84 28.8 61 16.3 47 47 S 6 9 29.59 1002 10 16.0934 0 0
8:15 pm 20:15 Partly Cloudy 81 27.3 60 15.5 49 49 SSW 14 22 29.62 1003 10 16.0934 0 0
8:35 pm 20:35 Partly Cloudy 80 26.7 59 15.1 49 49 SSW 15 24 29.62 1003 10 16.0934 0 0
8:55 pm 20:55 Sunny 76 24.2 61 15.9 60 60 S 8 13 29.65 1004 10 16.0934 0 0
9:15 pm 21:15 Clear 76 24.4 61 16 60 60 SSW 9 15 29.65 1004 10 16.0934 0 0
9:35 pm 21:35 Clear 74 23.5 61 16.3 64 64 SSW 7 11 29.65 1004 10 16.0934 0 0
9:55 pm 21:55 Clear 73 22.8 61 16.2 66 66 SSW 7 11 29.65 1004 10 16.0934 0 0
10:15 pm 22:15 Clear 71 21.9 62 16.5 72 72 W 3 6 29.65 1004 10 16.0934 0 0
10:35 pm 22:35 Clear 68 20.2 63 17 82 82 Calm 29.68 1005 10 16.0934 0 0
10:55 pm 22:55 Clear 69 20.5 62 16.5 78 78 Calm 29.68 1005 10 16.0934 0 0
11:15 pm 23:15 Clear 68 19.8 61 16.3 80 80 Calm 29.68 1005 10 16.0934 0 0
11:35 pm 23:35 Clear 66 19 62 16.5 86 86 NNW 5 7 29.68 1005 10 16.0934 0 0
11:55 pm 23:55 Clear 66 18.9 62 16.5 86 86 N 6 9 29.71 1006 10 16.0934 0 0

Powered by AerisWeather